Weather History for Newport, VT

Change the Weather History Date:

Saturday, February 25, 2012

  Actual Average Record
Temperature  
Mean Temperature 28 °F -  
Max Temperature 35 °F 29 °F 55 °F (1976)
Min Temperature 22 °F 10 °F -19 °F (1959)
Degree Days  
Heating Degree Days 36    
Moisture  
Dew Point 22 °F    
Average Humidity 76    
Maximum Humidity 87    
Minimum Humidity 67    
Precipitation  
Precipitation 0.00 in - - ()
Sea Level Pressure  
Sea Level Pressure 29.26 in    
Wind  
Wind Speed 7 mph (WSW)    
Max Wind Speed 23 mph    
Max Gust Speed 32 mph    
Visibility 2 miles    
Events Snow    
Averages and records for this station are not official NWS values.
T = Trace of Precipitation, MM = Missing Value Source: NWS Daily Summary

Daily Weather History Graph

Daily Weather History Graph

Search for Another Location

Airport:

Trip Planner

Search our weather history database for the weather conditions in past years. The results will help you decide how hot, cold, wet, or windy it might be!

Date:

Astronomy

Feb. 25, 2012 Rise Set
Actual Time 6:34 AM EST 5:30 PM EST
Civil Twilight 6:04 AM EST 5:59 PM EST
Nautical Twilight 5:30 AM EST 6:33 PM EST
Astronomical Twilight 4:57 AM EST 7:07 PM EST
Moon 7:44 AM EST (2/25) 9:42 PM EST (2/25)
Length of Visible Light 11h 55m
Length of Day
10h 55m
Waxing Crescent, 13% of the Moon is Illuminated
Feb 25
Waxing Crescent
Feb 29
First Quarter
Mar 8
Full
Mar 14
Last Quarter
Mar 22
New

Hourly Weather History & Observations

Time (EST) Temp. Windchill Dew Point Humidity Pressure Visibility Wind Dir Wind Speed Gust Speed Precip Events Conditions
12:15 AM 33.4 °F - 29.8 °F 87% 29.16 in 1.5 mi Calm Calm - N/A Snow Light Snow
12:35 AM 33.3 °F - 29.7 °F 87% 29.15 in 1.8 mi Calm Calm - N/A Snow Light Snow
12:55 AM 32.9 °F - 29.3 °F 87% 29.12 in 1.5 mi Calm Calm - N/A Snow Light Snow
1:15 AM 32.9 °F - 29.3 °F 87% 29.11 in 1.5 mi Calm Calm - N/A Snow Light Snow
1:35 AM 32.9 °F - 29.3 °F 87% 29.10 in 1.5 mi Calm Calm - N/A Snow Light Snow
1:55 AM 32.9 °F - 29.3 °F 87% 29.09 in 3.0 mi Calm Calm - N/A Snow Light Snow
2:15 AM 32.9 °F - 29.3 °F 87% 29.09 in 3.0 mi Calm Calm - N/A Snow Light Snow
2:35 AM 33.3 °F - 29.8 °F 87% 29.08 in 1.5 mi Calm Calm - N/A Snow Light Snow
2:55 AM 33.4 °F - 29.8 °F 87% 29.07 in 3.0 mi Calm Calm - N/A Snow Light Snow
3:15 AM 33.8 °F - 30.2 °F 87% 29.06 in 3.0 mi Calm Calm - N/A Snow Light Snow
3:35 AM 34.0 °F - 30.2 °F 86% 29.06 in 10.0 mi Calm Calm - N/A   Overcast
3:55 AM 34.7 °F 31.8 °F 29.7 °F 82% 29.06 in 10.0 mi SW 3.5 mph - N/A   Overcast
4:15 AM 35.2 °F 31.2 °F 27.9 °F 74% 29.05 in 10.0 mi SW 4.6 mph - N/A   Overcast
4:35 AM 34.7 °F 29.6 °F 28.4 °F 78% 29.06 in 5.0 mi SW 5.8 mph - N/A Snow Light Snow
4:55 AM 34.5 °F 31.6 °F 28.0 °F 77% 29.06 in 7.0 mi SW 3.5 mph - N/A Snow Light Snow
5:15 AM 34.3 °F 29.2 °F 28.0 °F 78% 29.06 in 2.5 mi SSW 5.8 mph - N/A Snow Light Snow
5:35 AM 34.2 °F 28.2 °F 27.3 °F 76% 29.06 in 3.0 mi WSW 6.9 mph - N/A Snow Light Snow
5:55 AM 34.0 °F 28.0 °F 26.4 °F 74% 29.07 in 4.0 mi SW 6.9 mph - N/A Snow Light Snow
6:15 AM 33.1 °F 24.4 °F 27.1 °F 79% 29.07 in 1.2 mi SW 11.5 mph - N/A Snow Light Snow
6:55 AM 32.2 °F 24.4 °F 25.5 °F 76% 29.09 in 3.0 mi SSW 9.2 mph - N/A Snow Light Snow
7:15 AM 32.0 °F 24.2 °F 25.0 °F 75% 29.10 in 1.5 mi SW 9.2 mph - N/A Snow Light Snow
7:35 AM 32.0 °F 23.0 °F 24.8 °F 75% 29.11 in 1.8 mi WSW 11.5 mph - N/A Snow Light Snow
7:55 AM 31.8 °F 23.9 °F 23.9 °F 73% 29.13 in 1.2 mi WSW 9.2 mph - N/A Snow Light Snow
8:15 AM 31.3 °F 23.3 °F 23.9 °F 74% 29.13 in 1.0 mi WSW 9.2 mph - N/A Snow Light Snow
8:35 AM 31.1 °F 22.4 °F 23.9 °F 75% 29.13 in 0.8 mi SW 10.4 mph - N/A Snow Light Snow
8:55 AM 31.1 °F 21.9 °F 23.7 °F 74% 29.13 in 0.8 mi WSW 11.5 mph 19.6 mph N/A Snow Light Snow
9:15 AM 30.9 °F 23.5 °F 23.9 °F 75% 29.15 in 0.5 mi SW 8.1 mph - N/A Snow Snow
9:35 AM 30.7 °F 20.9 °F 23.7 °F 75% 29.15 in 0.8 mi SW 12.7 mph - N/A Snow Light Snow
9:55 AM 30.7 °F 20.9 °F 23.4 °F 74% 29.16 in 0.2 mi WSW 12.7 mph - N/A Snow Light Snow
10:15 AM 30.7 °F 21.4 °F 22.5 °F 71% 29.16 in 1.0 mi WSW 11.5 mph 19.6 mph N/A Snow Light Snow
10:35 AM 30.9 °F 21.7 °F 22.8 °F 72% 29.17 in 1.0 mi SW 11.5 mph 19.6 mph N/A Snow Light Snow
10:55 AM 30.6 °F 19.4 °F 23.0 °F 74% 29.17 in 0.5 mi WSW 16.1 mph 21.9 mph N/A Snow Light Snow
11:15 AM 30.2 °F 17.4 °F 22.3 °F 72% 29.18 in 0.5 mi WSW 20.7 mph 28.8 mph N/A Snow Light Snow
11:35 AM 30.2 °F 18.5 °F 22.3 °F 72% 29.20 in 0.5 mi WSW 17.3 mph 23.0 mph N/A Snow Snow
11:55 AM 30.2 °F 18.1 °F 21.9 °F 71% 29.21 in 0.5 mi WSW 18.4 mph 26.5 mph N/A Snow Light Snow
12:15 PM 30.2 °F 17.4 °F 21.4 °F 70% 29.21 in 0.8 mi WSW 20.7 mph 31.1 mph N/A Snow Light Snow
12:35 PM 29.7 °F 16.1 °F 21.6 °F 72% 29.21 in 0.5 mi WSW 23.0 mph 32.2 mph N/A Snow Snow
12:55 PM 29.3 °F 20.2 °F 20.8 °F 71% 29.23 in 0.8 mi West 10.4 mph 28.8 mph N/A Snow Light Snow
1:35 PM 28.4 °F 16.6 °F 20.3 °F 72% 29.27 in 0.5 mi WSW 16.1 mph 23.0 mph N/A Snow Light Snow
1:55 PM 27.7 °F 14.8 °F 19.8 °F 72% 29.28 in 0.8 mi West 18.4 mph 29.9 mph N/A Snow Light Snow
2:15 PM 27.5 °F 15.4 °F 19.6 °F 72% 29.29 in 0.5 mi WSW 16.1 mph 26.5 mph N/A Snow Light Snow
2:35 PM 27.1 °F 15.9 °F 19.9 °F 74% 29.31 in 0.5 mi WSW 13.8 mph 21.9 mph N/A Snow Snow
2:55 PM 27.0 °F 16.7 °F 19.6 °F 74% 29.33 in 0.5 mi West 11.5 mph 23.0 mph N/A Snow Snow
3:15 PM 27.0 °F 17.3 °F 19.6 °F 74% 29.35 in 0.2 mi WSW 10.4 mph 17.3 mph N/A Snow Snow
3:35 PM 26.4 °F 15.0 °F 19.0 °F 74% 29.36 in 0.5 mi West 13.8 mph 24.2 mph N/A Snow Light Snow
3:55 PM 25.2 °F 12.4 °F 18.0 °F 74% 29.38 in 0.2 mi West 16.1 mph 20.7 mph N/A Snow Snow
4:15 PM 24.8 °F 11.9 °F 17.6 °F 74% 29.40 in 0.5 mi WSW 16.1 mph 24.2 mph N/A Snow Light Snow
4:35 PM 24.4 °F 11.0 °F 17.4 °F 75% 29.41 in 0.5 mi West 17.3 mph 24.2 mph N/A Snow Snow
4:55 PM 24.3 °F 9.6 °F 16.9 °F 73% 29.41 in 0.5 mi West 20.7 mph 29.9 mph N/A Snow Light Snow
5:15 PM 23.9 °F 9.1 °F 16.5 °F 73% 29.43 in 0.5 mi West 20.7 mph 28.8 mph N/A Snow Light Snow
5:35 PM 23.9 °F 11.7 °F 16.0 °F 72% 29.45 in 1.5 mi West 13.8 mph 28.8 mph N/A Snow Light Snow
5:55 PM 23.9 °F 14.2 °F 15.8 °F 71% 29.47 in 2.5 mi West 9.2 mph 23.0 mph N/A Snow Light Snow
6:15 PM 24.1 °F 10.6 °F 15.4 °F 70% 29.48 in 2.5 mi West 17.3 mph 27.6 mph N/A Snow Light Snow
6:35 PM 23.9 °F 14.2 °F 15.8 °F 71% 29.51 in 2.5 mi West 9.2 mph 20.7 mph N/A Snow Light Snow
6:55 PM 23.9 °F 11.2 °F 16.0 °F 72% 29.53 in 2.5 mi West 15.0 mph 21.9 mph N/A Snow Light Snow
7:15 PM 24.1 °F 11.0 °F 16.3 °F 72% 29.55 in 2.0 mi West 16.1 mph 24.2 mph N/A Snow Light Snow
7:35 PM 24.3 °F 12.7 °F 16.3 °F 72% 29.57 in 1.5 mi West 12.7 mph 24.2 mph N/A Snow Light Snow
7:55 PM 24.3 °F 13.9 °F 16.2 °F 71% 29.58 in 2.0 mi West 10.4 mph 19.6 mph N/A Snow Light Snow
8:35 PM 23.5 °F 13.7 °F 14.7 °F 69% 29.63 in 3.0 mi West 9.2 mph 26.5 mph N/A Snow Light Snow
8:55 PM 23.2 °F 10.8 °F 14.5 °F 70% 29.64 in 2.5 mi West 13.8 mph 20.7 mph N/A Snow Light Snow
9:15 PM 22.8 °F 8.9 °F 14.2 °F 69% 29.65 in 2.0 mi West 17.3 mph 32.2 mph N/A Snow Light Snow
9:35 PM 22.6 °F 9.6 °F 13.3 °F 67% 29.68 in 2.0 mi West 15.0 mph 25.3 mph N/A Snow Light Snow
9:55 PM 22.1 °F 8.9 °F 13.1 °F 68% 29.69 in 3.0 mi West 15.0 mph 23.0 mph N/A Snow Light Snow
10:15 PM 22.1 °F 10.0 °F 12.9 °F 68% 29.71 in 3.0 mi West 12.7 mph 23.0 mph N/A Snow Light Snow
10:35 PM 21.7 °F 8.0 °F 12.2 °F 67% 29.72 in 3.0 mi West 16.1 mph 25.3 mph N/A Snow Light Snow
10:55 PM 21.2 °F 7.8 °F 12.6 °F 69% 29.74 in 2.5 mi West 15.0 mph 23.0 mph N/A Snow Light Snow
11:15 PM 21.2 °F 9.5 °F 11.5 °F 66% 29.75 in 4.0 mi West 11.5 mph 17.3 mph N/A Snow Light Snow
11:35 PM 21.0 °F 8.1 °F 11.1 °F 66% 29.76 in 4.0 mi West 13.8 mph 23.0 mph N/A Snow Light Snow
11:55 PM 20.7 °F 8.8 °F 10.2 °F 64% 29.79 in 4.0 mi West 11.5 mph 19.6 mph N/A Snow Light Snow